User: anonymous   Login
Location: Newark
(56.0692°N, 115.8617°E)
Time: 20:36:46
(UTC+00:00)
Language:

Tiros 1 - Orbit

View from above orbital plane
View from above orbital plane
View from above satellite
View from above satellite

Ground track
Ground track

The orbit data is extracted from the following two-line orbital elements,

1    29U 60002B   20145.27189492 -.00000151 +00000-0 +86125-5 0  9998
2    29 048.3805 062.7369 0023563 129.6074 230.6923 14.74356388214979
Epoch (UTC): 24 May 2020 06:31:31
Eccentricity: 0.0023563
inclination: 48.3805°
perigee height: 630 km
apogee height: 664 km
right ascension of ascending node: 62.7369°
argument of perigee: 129.6074°
revolutions per day: 14.74356388
mean anomaly at epoch: 230.6923°
orbit number at epoch: 21497

The dashed part of the orbit path shows where the satellite is in the earth's shadow,  

DLR